Location: Bastelaar
(51.0950°N, 3.8602°E)
Time: 17:41:02
(UTC+00:00)

Cosmos 1140 Rocket - Pass Details

Date: 18 November 2025
Orbit: 740 x 761 km, 74.1° (Epoch: 09 December)

Event Time Altitude Azimuth Distance (km) Brightness Sun altitude
Rises 16:52:18 0° 202° (SSW) 3,197 7.4 -9.3°
Reaches altitude 10° 16:54:39 10° 202° (SSW) 2,273 6.6 -9.7°
Maximum altitude 16:59:49 89° 117° (ESE) 758 3.5 -10.4°
Drops below altitude 10° 17:05:00 10° 25° (NNE) 2,276 5.6 -11.2°
Enters shadow 17:06:30 - 25° (NNE) 2,862 6.1 -11.4°
